Wind_Speed
41 42 42 42 40 38 36 34 34 34 33 32 30 28 26 24 23 22 21 21 22 22 21 20 19 18 18 18 17 17 16 15 15 15 15 15 15 15 14 14 14 14
42 41 41 41 41 39 37 35 34 34 34 32 30 28 26 25 24 24 22 22 23 22 21 21 20 19 19 19 19 19 18 17 16 16 16 16 16 16 15 14 15 15
44 42 41 40 40 39 38 36 35 35 34 33 31 29 26 24 24 24 23 23 24 23 22 22 21 21 20 20 20 20 19 19 18 17 17 17 17 17 16 15 15 16
46 44 43 41 39 38 38 37 36 35 35 35 33 30 26 24 23 23 23 23 24 23 22 22 22 21 21 21 21 21 21 20 19 19 19 18 18 18 17 17 16 16
45 44 43 41 40 39 38 38 37 36 36 36 34 31 28 25 23 22 23 23 23 23 23 23 23 23 22 22 23 23 22 22 21 20 21 20 19 19 18 18 18 18
45 45 43 42 41 40 40 39 37 36 36 36 35 33 31 28 25 24 24 23 23 23 23 24 24 24 24 23 24 24 24 23 23 22 22 21 20 20 19 20 20 19
45 45 44 43 42 41 41 39 38 37 36 36 36 34 32 30 28 26 26 25 24 23 23 24 25 25 25 25 25 25 25 25 24 24 24 23 21 21 21 21 21 21
43 43 43 43 43 42 41 40 39 38 37 37 37 36 33 32 30 28 28 27 27 26 25 25 25 26 26 26 27 27 27 26 25 25 25 25 24 23 22 22 22 22
42 42 42 43 43 43 41 40 40 38 38 38 37 36 35 33 32 30 29 29 29 28 27 27 26 26 27 27 27 28 27 27 26 26 26 25 25 24 23 23 23 23
43 42 42 43 43 43 42 41 40 40 39 38 37 37 36 35 34 33 32 31 31 30 29 28 27 27 27 28 28 28 28 27 27 26 26 26 25 25 24 23 24 24
43 42 42 43 43 43 42 42 41 40 40 39 38 38 37 36 35 35 34 34 33 32 30 29 28 28 28 28 28 28 28 28 27 27 27 26 26 25 25 24 24 24
44 43 42 42 42 42 42 42 42 41 40 39 38 38 37 37 37 36 36 35 34 33 32 31 30 29 29 29 28 28 28 28 28 28 28 28 28 27 27 26 26 26
44 42 40 40 40 40 41 42 42 42 41 40 38 38 38 37 37 37 36 36 35 34 34 33 32 32 31 31 30 30 30 29 29 29 30 30 30 29 29 29 29 29
43 41 40 38 37 38 39 41 42 43 42 41 39 39 38 38 37 37 37 36 36 36 35 35 34 34 34 33 33 32 31 32 31 31 32 31 31 31 31 31 31 32
43 41 40 39 37 37 38 40 41 42 42 42 41 40 39 38 38 38 38 38 38 38 37 37 38 37 36 35 35 34 34 33 33 33 33 33 33 33 33 33 33 33
43 42 41 40 39 38 37 38 40 41 42 42 43 41 39 38 38 38 39 39 39 39 39 40 40 39 38 37 36 36 35 35 35 35 34 34 34 34 34 34 34 34
44 43 42 41 40 39 37 37 37 39 40 41 42 42 40 39 38 39 39 40 40 40 40 41 42 40 39 38 37 37 37 36 36 36 36 36 36 36 36 36 36 36
43 43 42 42 41 40 38 37 37 38 39 40 42 42 41 40 40 39 39 40 40 41 42 43 43 41 40 39 38 38 37 38 38 38 38 38 38 38 38 37 38 38
42 42 41 41 40 39 38 38 38 39 39 40 40 41 41 41 40 40 39 39 41 42 43 43 43 42 41 41 40 39 38 39 39 39 40 40 40 39 39 39 39 39
41 40 40 39 38 37 37 38 38 39 39 39 39 40 41 41 40 40 40 40 41 42 43 43 43 43 42 42 41 40 40 40 41 40 41 41 40 40 40 40 40 40
39 39 38 38 37 36 37 37 37 37 37 37 38 39 39 39 39 39 39 39 40 41 42 43 43 42 42 42 42 41 41 42 42 41 41 41 41 41 41 41 41 41
38 37 37 36 35 36 36 37 36 35 34 34 35 36 36 37 37 38 38 39 39 40 42 43 42 41 41 41 41 41 42 42 42 41 41 41 41 40 40 40 40 40
36 36 35 35 35 36 36 35 34 33 32 32 34 35 34 34 34 35 35 36 38 39 41 42 41 40 40 40 40 41 42 42 42 41 41 41 40 39 39 39 39 39
35 35 35 34 35 35 35 34 33 32 31 31 33 33 32 31 30 31 32 33 35 37 38 40 40 38 38 39 39 40 41 41 41 40 40 41 40 39 38 38 38 38
36 36 35 35 35 34 33 32 31 30 30 31 33 33 32 31 30 31 31 31 32 34 36 38 38 37 37 38 39 39 39 39 39 39 40 40 39 38 38 38 38 38
38 37 37 35 34 33 31 31 31 31 31 32 34 34 33 33 33 33 33 31 31 33 34 35 36 35 35 36 37 37 37 37 38 39 39 39 38 38 38 37 38 38
Wind_Direction
225 226 227 228 229 228 228 227 227 229 231 231 231 230 228 228 227 227 226 226 224 226 227 227 226 226 228 227 228 230 231 232 234 234 234 235 239 240 240 240 240 241
225 226 228 229 230 229 229 229 229 230 232 234 234 235 234 233 233 232 230 228 226 225 227 229 228 226 228 229 230 231 232 233 233 234 235 235 237 239 241 241 241 241
226 227 228 228 229 229 229 230 230 231 233 235 236 237 236 235 234 234 231 228 227 227 227 229 230 228 228 229 231 233 234 235 235 235 236 237 237 239 242 242 242 242
226 227 228 228 229 230 230 231 231 231 232 234 236 236 236 234 235 235 231 227 228 229 228 228 231 231 230 230 231 233 235 236 237 238 239 239 238 240 240 241 242 242
227 228 228 229 230 231 232 232 232 231 232 233 235 236 235 234 235 234 231 228 228 229 228 227 230 232 232 231 232 233 234 235 236 238 240 240 240 240 241 242 242 242
227 228 229 230 231 231 232 232 232 232 232 233 234 235 235 236 237 233 230 228 227 228 227 226 228 229 231 232 232 233 234 235 235 237 240 242 241 242 242 243 245 245
228 228 229 230 231 232 232 231 232 232 233 233 234 235 236 237 237 234 230 229 229 229 228 228 228 228 230 232 233 234 235 236 237 237 240 243 243 243 243 244 247 248
229 230 230 231 231 232 231 230 231 231 232 233 234 235 237 237 237 235 233 232 232 233 233 232 232 231 232 233 235 237 238 239 239 240 241 243 244 245 245 245 247 249
230 232 232 233 233 233 232 230 230 230 231 233 234 235 237 238 237 236 236 235 235 236 236 235 234 234 234 235 236 238 240 242 242 243 243 244 246 248 248 249 249 250
230 231 233 234 234 235 234 232 230 231 231 232 233 235 236 238 238 237 237 238 239 238 238 237 236 236 235 235 237 238 240 242 244 245 246 246 247 250 252 253 254 254
229 231 232 233 235 236 236 234 233 233 233 233 233 234 236 237 238 239 239 240 240 240 240 240 240 240 240 239 239 239 240 241 243 244 246 247 248 251 252 254 256 257
229 230 232 233 235 236 237 237 236 235 235 235 235 235 236 237 238 239 240 241 240 240 241 242 243 244 245 245 244 244 243 243 243 244 245 247 249 250 251 253 255 257
229 231 232 234 236 237 238 238 237 237 237 236 236 236 236 237 238 239 240 241 241 241 242 243 244 246 247 248 248 248 247 247 247 247 248 249 251 251 252 253 254 256
230 231 232 234 236 238 239 239 238 238 238 238 238 238 237 238 238 239 241 241 242 242 243 245 246 246 247 247 248 249 249 250 250 251 252 253 254 255 255 256 256 257
230 231 232 233 235 237 239 239 239 239 239 239 238 238 238 238 239 240 241 242 243 244 245 247 248 248 247 248 249 249 250 251 251 253 254 256 257 258 258 259 259 259
229 231 232 233 234 236 239 240 240 240 240 240 240 239 239 239 239 240 241 242 244 245 247 248 248 249 249 250 251 251 252 254 255 256 257 258 259 260 261 262 262 262
229 231 232 233 234 236 238 240 240 240 240 241 241 241 241 240 240 240 241 242 244 245 247 249 249 250 251 252 254 254 255 256 257 259 260 261 262 263 264 265 266 267
230 231 232 233 235 236 238 240 241 241 241 241 242 242 242 242 241 241 241 242 243 245 246 248 250 251 253 254 256 257 258 259 260 261 263 263 264 266 267 269 269 271
232 233 234 235 237 238 239 241 241 242 242 242 243 243 243 243 244 243 243 243 244 245 246 248 250 251 253 255 257 258 259 260 261 262 264 265 267 268 270 272 272 273
233 235 236 237 239 240 241 242 242 243 244 245 245 245 245 245 245 245 245 245 245 246 247 249 250 251 253 255 257 259 260 261 261 262 263 265 268 269 271 273 274 275
234 235 237 238 240 241 241 242 243 244 245 246 246 246 247 248 248 248 247 247 247 248 250 251 251 252 254 255 257 259 261 261 262 262 263 265 267 269 270 272 274 275
234 235 237 239 240 241 241 242 243 244 245 245 246 246 248 249 249 249 249 249 249 250 251 252 253 253 255 256 258 260 261 261 262 263 264 265 267 268 270 271 273 274
234 235 237 239 239 240 241 241 242 243 244 244 244 245 246 246 247 249 249 250 251 252 253 254 254 255 256 257 259 260 260 261 262 263 265 266 267 269 270 271 272 273
237 237 238 239 239 240 242 243 243 244 244 245 244 245 246 247 249 250 251 252 252 253 254 256 257 258 258 259 261 261 261 262 263 265 266 267 269 269 270 271 271 272
240 240 241 241 241 242 244 245 246 246 246 247 247 248 249 250 251 251 252 253 253 254 256 257 259 260 260 261 262 262 262 263 264 265 266 267 269 270 271 272 273 274
242 242 242 243 243 245 247 247 248 248 248 248 249 250 252 252 252 252 253 254 255 256 257 258 259 261 262 262 263 263 263 264 264 264 266 268 270 271 273 275 276 277
Height
1535 1538 1540 1543 1545 1547 1550 1552 1554 1556 1558 1559 1561 1562 1564 1566 1568 1570 1571 1573 1574 1575 1577 1578 1579 1580 1581 1582 1582 1583 1584 1584 1585 1586 1586 1587 1588 1588 1589 1589 1590 1590
1533 1535 1538 1540 1543 1545 1548 1550 1552 1554 1556 1558 1560 1562 1563 1565 1567 1568 1570 1571 1573 1574 1575 1577 1578 1579 1580 1580 1581 1582 1583 1583 1584 1584 1585 1585 1586 1587 1587 1588 1589 1590
1530 1532 1535 1537 1540 1543 1545 1548 1550 1552 1554 1556 1558 1560 1562 1564 1565 1567 1568 1570 1571 1572 1574 1575 1576 1577 1578 1579 1580 1580 1581 1582 1583 1583 1584 1584 1585 1586 1586 1587 1588 1588
1527 1529 1532 1535 1537 1540 1543 1545 1548 1550 1552 1554 1556 1559 1561 1562 1564 1565 1567 1568 1570 1571 1572 1573 1574 1575 1577 1577 1578 1579 1579 1580 1581 1582 1583 1583 1584 1584 1585 1586 1586 1587
1524 1527 1530 1533 1535 1538 1540 1542 1545 1547 1550 1552 1554 1557 1558 1560 1562 1563 1565 1566 1568 1569 1570 1571 1572 1573 1574 1575 1576 1577 1578 1578 1580 1580 1581 1581 1582 1583 1584 1585 1585 1585
1522 1524 1527 1530 1533 1535 1537 1539 1542 1544 1547 1549 1552 1554 1556 1558 1560 1562 1563 1564 1566 1567 1568 1569 1570 1571 1572 1573 1574 1575 1576 1577 1578 1579 1579 1580 1581 1582 1582 1583 1583 1584
1519 1522 1525 1527 1530 1532 1534 1537 1539 1542 1544 1547 1549 1551 1553 1555 1557 1559 1561 1562 1564 1565 1566 1567 1568 1569 1570 1571 1572 1573 1574 1575 1576 1577 1577 1578 1579 1580 1580 1581 1581 1582
1516 1519 1522 1525 1527 1529 1531 1534 1536 1539 1541 1544 1546 1548 1550 1553 1555 1557 1559 1560 1561 1563 1564 1565 1566 1567 1568 1569 1570 1571 1572 1573 1574 1575 1575 1576 1577 1578 1578 1579 1580 1580
1514 1517 1519 1522 1524 1526 1528 1531 1533 1536 1538 1541 1543 1545 1547 1550 1552 1554 1556 1557 1559 1560 1561 1563 1564 1565 1566 1567 1567 1568 1569 1570 1571 1572 1573 1574 1575 1575 1576 1578 1578 1578
1511 1514 1516 1519 1521 1523 1525 1528 1531 1533 1535 1538 1540 1543 1544 1546 1549 1551 1553 1554 1556 1557 1558 1560 1561 1562 1563 1564 1565 1566 1567 1568 1569 1570 1571 1572 1572 1573 1574 1575 1576 1576
1508 1511 1513 1515 1518 1520 1523 1526 1528 1530 1533 1535 1537 1539 1541 1543 1545 1547 1549 1551 1552 1554 1555 1557 1558 1559 1561 1561 1563 1564 1565 1566 1567 1567 1568 1569 1570 1571 1572 1573 1573 1574
1505 1507 1510 1512 1515 1517 1520 1523 1525 1527 1530 1532 1534 1536 1538 1540 1542 1544 1546 1547 1549 1551 1552 1554 1555 1556 1557 1558 1560 1561 1562 1563 1564 1565 1566 1566 1567 1569 1569 1570 1571 1571
1501 1503 1506 1509 1511 1514 1517 1520 1522 1524 1526 1529 1531 1533 1535 1537 1538 1540 1542 1544 1546 1548 1549 1551 1552 1553 1554 1555 1557 1558 1560 1560 1561 1562 1563 1564 1565 1566 1567 1568 1568 1568
1497 1500 1503 1506 1508 1511 1514 1516 1518 1521 1523 1525 1528 1530 1531 1533 1535 1537 1539 1541 1543 1544 1546 1547 1549 1550 1551 1552 1554 1555 1556 1557 1558 1559 1560 1561 1562 1563 1564 1564 1565 1565
1494 1497 1499 1503 1505 1508 1510 1512 1515 1517 1520 1522 1524 1526 1528 1530 1532 1534 1536 1537 1539 1540 1542 1544 1545 1545 1547 1549 1550 1552 1553 1554 1555 1556 1556 1557 1558 1559 1560 1561 1561 1561
1491 1494 1496 1499 1502 1504 1507 1509 1512 1514 1516 1518 1520 1522 1524 1527 1529 1531 1532 1533 1535 1536 1538 1539 1540 1541 1543 1545 1547 1548 1550 1551 1552 1552 1553 1554 1555 1556 1556 1556 1557 1557
1488 1491 1493 1496 1498 1501 1504 1506 1508 1511 1513 1515 1517 1518 1521 1523 1525 1526 1528 1529 1531 1532 1534 1534 1535 1537 1539 1541 1543 1545 1546 1547 1548 1549 1550 1551 1551 1552 1552 1552 1553 1553
1485 1488 1490 1493 1495 1498 1500 1503 1505 1507 1509 1511 1513 1514 1517 1519 1520 1522 1523 1525 1527 1528 1529 1530 1531 1533 1536 1538 1539 1541 1543 1544 1544 1545 1546 1547 1547 1548 1548 1549 1549 1549
1482 1485 1487 1490 1492 1495 1497 1499 1501 1503 1505 1507 1509 1511 1513 1515 1516 1518 1519 1521 1522 1523 1525 1526 1528 1530 1532 1534 1536 1537 1539 1540 1541 1542 1543 1543 1544 1544 1544 1545 1545 1545
1479 1481 1484 1486 1489 1492 1494 1495 1497 1499 1501 1503 1505 1508 1509 1510 1511 1513 1515 1517 1518 1519 1520 1522 1523 1526 1528 1530 1532 1533 1535 1537 1538 1539 1540 1540 1541 1541 1541 1541 1541 1542
1476 1478 1481 1483 1485 1488 1490 1491 1493 1495 1497 1499 1501 1503 1504 1505 1507 1509 1510 1512 1513 1515 1516 1517 1519 1522 1524 1526 1528 1530 1532 1533 1534 1536 1537 1537 1537 1537 1537 1537 1537 1538
1473 1475 1477 1479 1482 1484 1485 1487 1489 1491 1493 1495 1497 1498 1500 1501 1503 1504 1506 1507 1509 1511 1512 1512 1514 1517 1520 1521 1524 1526 1528 1529 1530 1532 1532 1533 1533 1533 1534 1534 1534 1534
1469 1472 1474 1476 1478 1480 1481 1484 1486 1488 1490 1491 1493 1494 1495 1496 1498 1499 1501 1503 1505 1506 1507 1507 1510 1513 1515 1517 1520 1522 1523 1525 1526 1527 1528 1528 1528 1529 1530 1530 1530 1530
1466 1468 1470 1472 1474 1476 1478 1480 1482 1484 1486 1487 1488 1489 1491 1492 1494 1496 1497 1499 1500 1501 1502 1504 1506 1509 1512 1513 1516 1518 1519 1520 1522 1523 1524 1523 1524 1525 1526 1526 1525 1525
1463 1464 1467 1469 1470 1472 1475 1476 1478 1480 1482 1484 1485 1486 1487 1489 1491 1492 1493 1495 1496 1497 1499 1501 1502 1505 1508 1509 1511 1514 1515 1516 1518 1519 1519 1519 1520 1521 1521 1521 1521 1520
1459 1461 1463 1465 1468 1470 1472 1473 1475 1477 1479 1480 1481 1482 1484 1486 1487 1488 1489 1491 1493 1494 1496 1497 1499 1501 1504 1505 1507 1510 1511 1513 1514 1514 1514 1514 1516 1516 1516 1516 1516 1516